Date_and_time,latitude,longitude,wind_speed,RelWindDirFrom,WindDirFrom,air_pressure,air_temperature,relative_humidity,Temp,platform_speed_wrt_ground,air_pressure_at_mean_sea_level,platform_orientation
2018-06-29 23:40,50.91174,-96.9825216666667,7.3,11.3,13,977.60,26.6,37,24.07,0.0,1002.74,270.0
2018-06-29 23:50,50.9117416666667,-96.9825183333333,6.7,9.4,15,977.48,26.5,37,24.13,0.0,1002.62,270.0
2018-06-30 00:00,50.9117316666667,-96.9825266666667,6.6,10.9,11,977.38,26.9,36,24.20,0.0,1002.50,360.0
2018-06-30 00:10,50.9117416666667,-96.98253,5.2,10.5,10,977.41,27.2,36,24.29,0.0,1002.50,360.0
2018-06-30 00:20,50.9117433333333,-96.9825233333333,7.3,9.9,360,977.50,27.1,35,24.35,0.0,1002.60,360.0
2018-06-30 00:30,50.9117416666667,-96.9825283333333,6.3,10.3,2,977.67,27.0,35,24.42,0.0,1002.76,360.0
2018-06-30 00:40,50.9117383333333,-96.9825266666667,6.6,10.1,351,977.83,26.8,36,24.46,0.0,1002.93,360.0
2018-06-30 00:50,50.9117366666667,-96.9825283333333,5.8,8.3,354,977.88,26.8,37,24.45,0.0,1002.98,360.0
2018-06-30 01:00,50.9117366666667,-96.9825283333333,5.8,8.1,350,977.87,26.6,38,24.44,0.0,1002.97,360.0
2018-06-30 01:10,50.9117383333333,-96.9825283333333,6.1,8.9,356,977.94,26.5,38,24.41,0.0,1003.05,360.0
2018-06-30 01:20,50.9117366666667,-96.98253,6.8,10.1,350,978.19,26.4,38,24.39,0.0,1003.31,360.0
2018-06-30 01:30,50.9117366666667,-96.9825283333333,6.0,8.5,349,978.28,26.1,41,24.35,0.0,1003.43,360.0
2018-06-30 01:40,50.9117416666667,-96.9825283333333,5.6,8.1,353,978.34,25.7,43,24.28,0.0,1003.50,360.0
2018-06-30 01:50,50.9117616666667,-96.9825616666667,6.5,9.4,355,978.50,25.4,42,24.20,0.0,1003.67,360.0
2018-06-30 02:00,50.9117416666667,-96.982545,6.5,8.5,357,978.58,25.1,42,24.11,0.0,1003.74,319.4
2018-06-30 02:10,50.9117266666667,-96.9825333333333,5.8,7.9,351,978.78,24.2,46,24.00,0.0,1003.99,319.4
2018-06-30 02:20,50.9117233333333,-96.9825333333333,6.3,8.0,357,978.74,23.8,46,23.83,0.0,1003.97,319.4
2018-06-30 02:30,50.9117266666667,-96.982535,6.3,8.0,357,978.87,23.7,46,23.68,0.0,1004.12,319.4
2018-06-30 02:40,50.9117283333333,-96.982535,5.8,7.6,354,978.99,23.7,46,23.56,0.0,1004.24,319.4
2018-06-30 02:50,50.911735,-96.9825416666667,5.2,6.2,347,979.09,23.3,48,23.46,0.0,1004.36,319.4
2018-06-30 03:00,50.91173,-96.98253,5.4,7.2,344,979.13,23.0,49,23.36,0.0,1004.43,0.0
2018-06-30 03:10,50.911735,-96.9825416666667,6.0,6.9,340,979.24,22.7,50,23.25,0.0,1004.56,0.0
2018-06-30 03:20,50.9117133333333,-96.9825283333333,5.4,7.0,340,979.34,22.4,52,23.15,0.0,1004.69,0.0
2018-06-30 03:30,50.9117183333333,-96.9825316666667,6.6,8.4,359,979.09,22.3,51,23.00,0.0,1004.45,0.0
2018-06-30 03:40,50.91172,-96.9825316666667,6.6,8.8,357,978.98,22.2,52,22.86,0.0,1004.35,0.0
2018-06-30 03:50,50.911725,-96.98253,5.4,7.2,14,978.94,22.3,51,22.76,0.0,1004.33,0.0
2018-06-30 04:00,50.9117366666667,-96.9825016666667,8.1,14.2,14,978.69,22.8,51,22.75,0.0,1004.09,90.0
2018-06-30 04:10,50.91173,-96.9825216666667,7.2,10.0,7,978.65,22.7,53,22.80,0.0,1004.06,90.0
2018-06-30 04:20,50.9117216666667,-96.9825266666667,6.5,9.3,20,978.59,22.6,55,22.81,0.0,1004.01,90.0
2018-06-30 04:30,50.9117233333333,-96.9825166666667,5.9,9.1,16,978.57,22.5,57,22.82,0.0,1004.00,90.0
2018-06-30 04:40,50.9117233333333,-96.9825166666667,5.4,7.8,348,978.76,21.8,62,22.79,0.0,1004.24,90.0
2018-06-30 04:50,50.9117233333333,-96.9825166666667,5.2,7.2,332,978.94,20.8,65,22.71,0.0,1004.48,90.0
2018-06-30 05:00,50.911725,-96.98253,5.5,6.9,335,978.98,20.4,65,22.54,0.0,1004.56,139.4
2018-06-30 05:10,50.9117266666667,-96.98253,5.1,6.4,339,979.03,20.4,65,22.40,0.0,1004.61,139.4
2018-06-30 05:20,50.9117283333333,-96.9825283333333,3.6,5.1,326,979.05,20.1,66,22.27,0.0,1004.65,139.4
2018-06-30 05:30,50.91173,-96.98253,2.9,5.4,339,979.08,19.9,67,22.15,0.0,1004.70,139.4
2018-06-30 05:40,50.9117316666667,-96.9825283333333,2.8,4.3,1,978.99,19.9,67,22.09,0.0,1004.60,139.4
2018-06-30 05:50,50.911725,-96.9825166666667,1.7,3.4,339,978.99,20.0,68,22.01,0.0,1004.58,139.4
2018-06-30 06:00,50.911725,-96.9825266666667,1.9,2.7,317,979.25,19.8,70,21.92,0.0,1004.85,142.5
2018-06-30 06:10,50.9117266666667,-96.9825283333333,3.3,4.5,297,979.21,19.7,68,21.84,0.0,1004.82,142.5
2018-06-30 06:20,50.9117266666667,-96.982525,3.2,4.4,295,979.19,19.4,68,21.70,0.0,1004.81,142.5
2018-06-30 06:30,50.9117283333333,-96.9825233333333,3.0,3.8,303,979.13,19.1,68,21.62,0.0,1004.80,142.5
2018-06-30 06:40,50.9117266666667,-96.9825233333333,2.2,3.0,323,978.99,18.7,71,21.53,0.0,1004.71,142.5
2018-06-30 06:50,50.9117333333333,-96.9825,2.7,4.0,11,978.68,19.0,71,21.48,0.0,1004.41,142.5
2018-06-30 07:00,50.9117283333333,-96.9825183333333,2.3,3.2,58,978.54,19.7,74,21.45,0.0,1004.23,248.2
2018-06-30 07:10,50.9117166666667,-96.9825283333333,1.1,1.8,22,978.53,19.8,73,21.40,0.0,1004.23,248.2
2018-06-30 07:20,50.9117183333333,-96.982525,1.4,2.3,35,978.49,19.6,76,21.37,0.0,1004.21,248.2
2018-06-30 07:30,50.9117216666667,-96.9825283333333,3.2,4.9,51,978.18,20.4,83,21.33,0.0,1003.85,248.2
2018-06-30 07:40,50.911725,-96.98253,3.8,4.6,58,977.88,21.0,89,21.30,0.0,1003.52,248.2
2018-06-30 07:50,50.9117266666667,-96.9825283333333,4.2,5.1,44,977.60,20.9,93,21.27,0.0,1003.24,248.2
2018-06-30 08:00,50.9117283333333,-96.98253,2.9,4.2,35,977.41,21.1,94,21.21,0.0,1003.04,360.0
2018-06-30 08:10,50.9117266666667,-96.98253,1.9,2.5,1,977.31,20.6,97,21.15,0.0,1002.97,360.0
2018-06-30 08:20,50.9117266666667,-96.98253,2.7,5.9,18,976.97,20.2,100,21.11,0.0,1002.66,360.0
2018-06-30 08:30,50.9117266666667,-96.98253,5.6,11.3,54,976.43,20.8,97,21.10,0.0,1002.09,360.0
2018-06-30 08:40,50.9117266666667,-96.9825283333333,8.4,12.4,57,976.08,21.7,94,21.25,0.0,1001.68,360.0
2018-06-30 08:50,50.911725,-96.9825266666667,8.1,10.5,51,975.87,21.8,94,21.45,0.0,1001.43,360.0
2018-06-30 09:00,50.911725,-96.9825266666667,8.0,10.4,60,975.83,21.9,90,21.59,0.0,1001.39,0.0
2018-06-30 09:10,50.9117166666667,-96.9825283333333,7.1,9.6,73,975.86,22.0,85,21.69,0.0,1001.42,0.0
2018-06-30 09:20,50.9117183333333,-96.98253,7.8,8.8,84,976.01,22.2,81,21.76,0.0,1001.52,0.0
2018-06-30 09:30,50.91172,-96.98253,5.7,7.9,84,976.09,22.2,82,21.80,0.0,1001.58,0.0
2018-06-30 09:40,50.9116833333333,-96.98252,5.1,5.9,95,976.31,22.1,85,21.82,0.0,1001.81,0.0
2018-06-30 09:50,50.911745,-96.98251,4.7,5.6,98,976.31,22.0,87,21.83,0.0,1001.81,0.0
2018-06-30 10:00,50.911725,-96.9825233333333,3.2,3.9,130,976.56,21.4,90,21.84,0.0,1002.12,360.0
2018-06-30 10:10,50.9117283333333,-96.9825283333333,3.3,4.4,115,976.54,21.9,92,21.84,0.0,1002.09,360.0
2018-06-30 10:20,50.911725,-96.9825283333333,5.4,7.5,139,976.65,21.3,96,21.84,0.0,1002.20,360.0
2018-06-30 10:30,50.9117383333333,-96.9825233333333,6.7,7.5,131,976.85,21.2,96,21.84,0.0,1002.37,360.0
2018-06-30 10:40,50.911735,-96.9825266666667,7.3,8.6,125,976.96,21.2,95,21.85,0.0,1002.47,360.0
2018-06-30 10:50,50.9117333333333,-96.982525,7.3,8.8,128,977.00,21.2,94,21.85,0.0,1002.52,360.0
2018-06-30 11:00,50.9117316666667,-96.982525,9.3,11.2,129,977.22,21.4,88,21.86,0.0,1002.73,90.0
2018-06-30 11:10,50.91173,-96.9825216666667,8.9,10.8,127,977.17,21.3,89,21.87,0.0,1002.67,90.0
2018-06-30 11:20,50.9117283333333,-96.9825216666667,8.9,11.6,123,976.97,21.3,90,21.87,0.0,1002.48,90.0
2018-06-30 11:30,50.9117283333333,-96.9825233333333,10.6,13.2,121,976.93,21.1,91,21.86,0.0,1002.44,90.0
2018-06-30 11:40,50.91173,-96.9825266666667,11.4,13.5,127,976.87,20.9,94,21.84,0.0,1002.40,90.0
2018-06-30 11:50,50.9117416666667,-96.98253,13.4,15.8,136,977.09,20.8,95,21.81,0.0,1002.65,90.0
2018-06-30 12:00,50.91174,-96.98253,14.4,16.8,140,977.15,20.8,96,21.79,0.0,1002.69,360.0
2018-06-30 12:10,50.9117466666667,-96.982515,14.6,17.1,138,977.15,20.7,97,21.78,0.0,1002.72,360.0
2018-06-30 12:20,50.9117316666667,-96.982515,13.6,16.9,137,977.16,20.5,98,21.75,0.0,1002.75,360.0
2018-06-30 12:30,50.91173,-96.98252,10.7,13.5,151,977.32,20.4,99,21.71,0.0,1002.91,360.0
2018-06-30 12:40,50.9117283333333,-96.9825216666667,8.4,16.5,260,977.67,19.4,100,21.62,0.0,1003.31,360.0
2018-06-30 12:50,50.9117266666667,-96.9825216666667,3.3,7.6,300,977.54,18.2,101,21.38,0.0,1003.23,360.0
2018-06-30 13:00,50.911715,-96.9825183333333,6.5,12.1,281,977.14,17.9,101,21.22,0.0,1002.83,360.0
2018-06-30 13:10,50.911725,-96.9825183333333,9.1,13.1,285,977.25,17.8,101,21.03,0.0,1002.95,360.0
2018-06-30 13:20,50.9117233333333,-96.9825266666667,6.5,10.1,288,977.35,17.5,101,20.80,0.0,1003.08,360.0
2018-06-30 13:30,50.9117216666667,-96.9825266666667,5.0,8.8,303,977.38,17.5,101,20.66,0.0,1003.11,360.0
2018-06-30 13:40,50.91172,-96.98253,3.7,6.9,360,977.29,17.7,101,20.61,0.0,1003.02,360.0
2018-06-30 13:50,50.9117216666667,-96.9825216666667,2.3,6.4,32,977.10,17.9,101,20.54,0.0,1002.82,360.0
2018-06-30 14:00,50.9117116666667,-96.982525,2.7,3.9,44,977.25,18.1,101,20.53,0.0,1002.97,360.0
2018-06-30 14:10,50.911715,-96.982525,2.7,4.4,14,977.19,18.3,101,20.55,0.0,1002.90,360.0
2018-06-30 14:20,50.9117183333333,-96.9825266666667,2.5,5.2,333,977.15,18.9,100,20.57,0.0,1002.84,360.0
2018-06-30 14:30,50.9117216666667,-96.9825316666667,5.3,7.7,291,977.39,18.9,100,20.61,0.0,1003.14,360.0
2018-06-30 14:40,50.9117216666667,-96.9825283333333,7.8,11.0,296,977.42,19.2,100,20.64,0.0,1003.21,360.0
2018-06-30 14:50,50.9117533333333,-96.982515,6.2,9.3,306,977.51,19.2,100,20.64,0.0,1003.30,360.0
2018-06-30 15:00,50.91173,-96.98252,5.1,8.8,320,977.48,19.8,100,20.67,0.0,1003.25,360.0
2018-06-30 15:10,50.9117316666667,-96.9825266666667,4.9,8.1,320,977.45,19.8,100,20.71,0.0,1003.24,360.0
2018-06-30 15:20,50.9117316666667,-96.9825283333333,4.1,6.9,300,977.36,19.7,100,20.75,0.0,1003.15,360.0
2018-06-30 15:30,50.9117166666667,-96.9825466666667,4.8,7.5,297,977.54,20.2,96,20.79,0.0,1003.30,360.0
2018-06-30 15:40,50.9117183333333,-96.9825366666667,7.3,11.7,279,977.71,20.6,91,20.86,0.0,1003.46,360.0
2018-06-30 15:50,50.911715,-96.9825133333333,7.5,12.0,270,977.79,20.7,88,20.96,0.0,1003.51,360.0
2018-06-30 16:00,50.91172,-96.9825333333333,7.0,12.3,264,977.86,20.7,87,21.04,0.0,1003.58,299.5
2018-06-30 16:10,50.9117383333333,-96.9825383333333,7.5,11.5,267,977.86,20.8,85,21.09,0.0,1003.55,299.5
2018-06-30 16:20,50.91173,-96.982535,8.9,14.6,274,977.91,21.0,79,21.15,0.0,1003.59,299.5
2018-06-30 16:30,50.9117283333333,-96.9825333333333,7.0,13.1,256,978.04,20.9,77,21.20,0.0,1003.71,299.5
2018-06-30 16:40,50.9117266666667,-96.9825366666667,7.2,12.5,259,978.00,21.1,76,21.23,0.0,1003.67,299.5
2018-06-30 16:50,50.9117266666667,-96.9825366666667,9.2,14.2,269,977.94,21.2,73,21.27,0.0,1003.58,299.5
2018-06-30 17:00,50.9117166666667,-96.9825183333333,7.4,14.2,268,977.93,20.9,75,21.30,0.0,1003.58,9.8
2018-06-30 17:10,50.9117266666667,-96.9825516666667,7.4,11.6,264,977.87,21.6,72,21.32,0.0,1003.50,9.8
2018-06-30 17:20,50.9117116666667,-96.98251,9.0,14.7,269,977.73,21.9,69,21.42,0.0,1003.31,9.8
2018-06-30 17:30,50.9117183333333,-96.982525,7.0,13.5,256,977.88,22.1,69,21.53,0.0,1003.44,9.8
2018-06-30 17:40,50.91172,-96.982525,6.9,10.8,260,977.96,22.3,69,21.62,0.0,1003.51,9.8
2018-06-30 17:50,50.9117233333333,-96.982525,7.8,11.7,254,978.04,22.2,68,21.70,0.0,1003.59,9.8
2018-06-30 18:00,50.911725,-96.98253,5.6,10.1,257,978.07,22.0,69,21.74,0.0,1003.64,227.9
2018-06-30 18:10,50.9117233333333,-96.9825283333333,5.9,12.1,236,978.07,22.8,65,21.79,0.0,1003.59,227.9
2018-06-30 18:20,50.91174,-96.9825216666667,7.0,12.6,257,978.06,22.5,66,21.88,0.0,1003.59,227.9
2018-06-30 18:30,50.91171,-96.9825233333333,7.3,14.6,239,978.06,22.2,65,21.92,0.0,1003.60,227.9
2018-06-30 18:40,50.9117133333333,-96.9825233333333,7.2,13.3,241,978.05,22.4,63,21.93,0.0,1003.57,227.9
2018-06-30 18:50,50.9117166666667,-96.9825483333333,8.1,16.0,237,978.02,23.4,61,22.04,0.0,1003.52,227.9
2018-06-30 19:00,50.9117183333333,-96.9825383333333,8.5,14.9,246,978.09,22.8,63,22.17,0.0,1003.58,142.5
2018-06-30 19:10,50.9117183333333,-96.9825366666667,8.8,17.1,251,978.08,22.9,63,22.20,0.0,1003.55,142.5
2018-06-30 19:20,50.91172,-96.9825366666667,9.8,18.4,253,978.12,23.4,61,22.30,0.0,1003.57,142.5
2018-06-30 19:30,50.91172,-96.9825383333333,11.1,18.2,252,978.31,22.4,63,22.35,0.0,1003.79,142.5
2018-06-30 19:40,50.9117216666667,-96.982535,10.6,18.0,249,978.45,21.9,63,22.28,0.0,1003.96,142.5
2018-06-30 19:50,50.9117233333333,-96.9825333333333,10.1,15.6,251,978.44,22.2,62,22.20,0.0,1003.95,142.5
2018-06-30 20:00,50.9117233333333,-96.9825333333333,10.2,15.4,258,978.36,22.3,63,22.18,0.0,1003.83,324.0
2018-06-30 20:10,50.9117233333333,-96.9825283333333,10.2,17.0,261,978.43,22.2,64,22.20,0.0,1003.91,324.0
2018-06-30 20:20,50.9117416666667,-96.9825866666667,9.4,15.0,257,978.56,21.7,66,22.15,0.0,1004.09,324.0
2018-06-30 20:30,50.911725,-96.982525,10.0,16.0,254,978.65,21.9,65,22.07,0.0,1004.16,324.0
2018-06-30 20:40,50.9117266666667,-96.9825183333333,10.5,16.4,272,978.53,22.5,63,22.11,0.0,1003.97,324.0
2018-06-30 20:50,50.91173,-96.9825316666667,10.2,18.0,248,978.67,22.4,62,22.18,0.0,1004.14,324.0
2018-06-30 21:00,50.9117266666667,-96.9825333333333,12.1,19.1,257,978.56,22.4,61,22.24,0.0,1004.03,350.2
2018-06-30 21:10,50.911725,-96.98253,10.6,17.7,265,978.50,22.6,61,22.27,0.0,1003.93,350.2
2018-06-30 21:20,50.9117233333333,-96.982535,11.5,17.3,271,978.45,22.6,61,22.35,0.0,1003.92,350.2
2018-06-30 21:30,50.9117166666667,-96.9825516666667,10.9,20.3,265,978.62,22.7,61,22.43,0.0,1004.12,350.2
2018-06-30 21:40,50.9117183333333,-96.98254,13.7,19.2,276,978.56,22.1,64,22.45,0.0,1004.06,350.2
2018-06-30 21:50,50.9116883333333,-96.9825166666667,14.6,19.9,284,978.50,21.3,65,22.37,0.0,1004.04,350.2
2018-06-30 22:00,50.9117316666667,-96.9825216666667,13.9,19.7,290,978.62,21.6,64,22.25,0.0,1004.15,31.8
2018-06-30 22:10,50.911725,-96.9825616666667,11.2,16.1,281,978.83,21.4,65,22.19,0.0,1004.40,31.8
2018-06-30 22:20,50.9117266666667,-96.9825566666667,13.0,20.4,280,978.69,21.8,61,22.15,0.0,1004.22,31.8
2018-06-30 22:30,50.9116866666667,-96.9825116666667,13.4,18.5,277,978.69,21.9,58,22.18,0.0,1004.20,31.8
2018-06-30 22:40,50.9117083333333,-96.982525,13.2,17.2,284,978.75,21.7,59,22.20,0.0,1004.27,31.8
2018-06-30 22:50,50.9117416666667,-96.9825366666667,11.9,17.6,288,978.76,21.8,60,22.17,0.0,1004.28,31.8
2018-06-30 23:00,50.9117266666667,-96.9825366666667,10.3,15.3,274,978.85,21.9,59,22.18,0.0,1004.36,360.0
2018-06-30 23:10,50.911725,-96.98253,11.5,20.8,272,978.91,22.2,57,22.22,0.0,1004.40,360.0
2018-06-30 23:20,50.9117266666667,-96.9825316666667,14.7,22.8,273,978.89,21.6,60,22.24,0.0,1004.41,360.0
2018-06-30 23:30,50.9117283333333,-96.98252,11.5,18.1,271,979.23,20.5,64,22.08,0.0,1004.83,360.0
2018-06-30 23:40,50.9117383333333,-96.982515,10.1,16.0,268,979.43,20.2,65,21.88,0.0,1005.08,360.0
2018-06-30 23:50,50.9117366666667,-96.9825133333333,10.7,16.3,277,979.40,20.3,65,21.72,0.0,1005.04,360.0
